Location: Days
(41.3591°N, 106.7339°W)
Time: 12:12:28
(UTC+00:00)

RS-15 - Pass Details

Date: 30 June 2022
Orbit: 1881 x 2163 km, 64.8° (Epoch: 13 August)

Event Time Altitude Azimuth Distance (km) Brightness Sun altitude
Rises 08:55:01 0° 321° (NW) 5,693 10.8 -21.1°
Reaches altitude 10° 08:59:05 10° 312° (NW) 4,672 10.2 -20.8°
Maximum altitude 09:08:54 30° 258° (WSW) 3,255 8.8 -19.9°
Enters shadow 09:13:19 24° 226° (SW) 3,546 8.8 -19.5°
